User: anonymous   Login
Location: El Bakhil
(32.7726°N, 5.5387°W)
Time: 02:10:04
(UTC+00:00)
Language:

Cosmos 1844 - Orbit

View from above orbital plane
View from above orbital plane
View from above satellite
View from above satellite

Ground track
Ground track

The orbit data is extracted from the following two-line orbital elements,

1 17973U 87041A   21137.45153504  .00000048  00000-0  50482-4 0  9993
2 17973  70.8976 139.0769 0029472 143.2907 217.0241 14.14125854755134
Epoch (UTC): 17 May 2021 10:50:12
Eccentricity: 0.0029472
inclination: 70.8976°
perigee height: 824 km
apogee height: 866 km
right ascension of ascending node: 139.0769°
argument of perigee: 143.2907°
revolutions per day: 14.14125854
mean anomaly at epoch: 217.0241°
orbit number at epoch: 75513

The dashed part of the orbit path shows where the satellite is in the earth's shadow,  

DLR